TOURFACTS.DK  
Stats and Facts from Tour de France.

Tour de France 2017 starts in 35 days
  Riders   Stages   Teams   Summits   Yearly  


 
Search by year

 After:  2016 - Stage 21:   14626 starters.
  5086 different riders.
  632 teams.
  2211 stages.
  454 restdays.
  436049.60 km.
  5622 abandonnees.


Top 3
Christopher Froome89:04:48
Romain Bardet89:08:53
Nairo Quintana89:09:09
Rafal Majka209 pt.
Thomas De Gendt130 pt.
Jarlinson Pantano ..121 pt.
Peter Sagan470 pt.
Marcel Kittel228 pt.
Michael Matthews199 pt.
Adam Yates89:09:30
Louis Meintjes89:11:46
Emanuel Buchmann89:52:28
Facts from Tour de France 2016
  |   Stages.  |   Stage winners.  |   Days in yellow  |   Average speed.  |   Route.  |   Teams.  |   All riders.  |   Rookies.  |   Withdrawls.  |  

  |   GC.  |   Polka  |   Green  |   White  |   Summits. (In tour)  |   Summits. (Points)  |   Miscellaneous.  |  

Stage 11 on 13 - 07 - 2016
         Owning:    Christopher Froome      Thibaut Pinot      Peter Sagan      Adam Yates  

Pick a stage:  1 2 3 4 5 6 7 8 9 10 11 12 13 14 15 16 17 18 19 20 21
  CarcassonneMontpellier | Dist: 164.00 km.
Cat: 4Côte de MinerveFRAArthur Vichot1 points 
Cat: 4Côte de VillespassansFRAArthur Vichot1 points 

Average speed for all riders in stage:  47,086 km./hr.
    Place:Name:Team:Time:Km/h:
SVKPeter SaganRUSTinkoff03:26:23  +  00:00:00=47,678 
KENChristopher FroomeGBRSky Procycling03:26:23  +  00:00:00=47,678 
POLMaciej BodnarRUSTinkoff03:26:23  +  00:00:00=47,678 
4 NORAlexander KristoffRUSTeam Katusha03:26:29  +  00:00:06=47,655 
5 FRAChristophe LaporteFRACofidis – Solutions Crédits03:26:29  +  00:00:06=47,655 
6 BELJasper StuyvenUSATrek – Segafredo03:26:29  +  00:00:06=47,655 
7 NOREdvald Boasson HagenZAFDimension Data03:26:29  +  00:00:06=47,655 
8 DEUAndré GreipelBELLotto Soudal03:26:29  +  00:00:06=47,655 
9 NORSondre Holst EngerCHEIAM Cycling03:26:29  +  00:00:06=47,655 
10 BELOliver NaesenCHEIAM Cycling03:26:29  +  00:00:06=47,655 
11 ZAFReinardt Janse Van RensburgZAFDimension Data03:26:29  +  00:00:06=47,655 
12 DEUJohn DegenkolbDEUTeam Giant Alpecin03:26:29  +  00:00:06=47,655 
13 NLDDylan GroenewegenNLDTeam Lotto NL - Jumbo03:26:29  +  00:00:06=47,655 
14 ENGDaniel McLayFRAFortuneo - Vital Concept03:26:29  +  00:00:06=47,655 
15 ENGAdam YatesAUSORICA BikeExchange03:26:29  +  00:00:06=47,655 
16 CZERoman KreuzigerRUSTinkoff03:26:29  +  00:00:06=47,655 
17 COLNairo QuintanaESPMovistar Team03:26:29  +  00:00:06=47,655 
18 AUSSimon GerransAUSORICA BikeExchange03:26:29  +  00:00:06=47,655 
19 NZLShane ArchboldDEUBora-Argon 1803:26:29  +  00:00:06=47,655 
20 ITAOscar GattoRUSTinkoff03:26:29  +  00:00:06=47,655 
21 BELGreg Van AvermaetUSABMC Racing Team03:26:29  +  00:00:06=47,655 
22 ITAFabio AruKAZAstana Pro Team03:26:29  +  00:00:06=47,655 
23 FRABryan CoquardFRADirect Energie03:26:29  +  00:00:06=47,655 
24 USATejay Van GarderenUSABMC Racing Team03:26:29  +  00:00:06=47,655 
25 DEUMarcel KittelBELEtixx - Quick Step03:26:29  +  00:00:06=47,655 
26 NLDBauke MollemaUSATrek – Segafredo03:26:29  +  00:00:06=47,655 
27 AUSRichie PorteUSABMC Racing Team03:26:29  +  00:00:06=47,655 
28 CHEMichael SchärUSABMC Racing Team03:26:29  +  00:00:06=47,655 
29 FRARomain BardetFRAAg2r La Mondiale03:26:29  +  00:00:06=47,655 
30 COLSergio Luis HenaoGBRSky Procycling03:26:29  +  00:00:06=47,655 
31 WALGeraint ThomasGBRSky Procycling03:26:29  +  00:00:06=47,655 
32 FRAWarren BarguilDEUTeam Giant Alpecin03:26:29  +  00:00:06=47,655 
33 COLJarlinson Pantano GomezCHEIAM Cycling03:26:29  +  00:00:06=47,655 
34 ITAVincenzo NibaliKAZAstana Pro Team03:26:29  +  00:00:06=47,655 
35 ENGDaniel MartinBELEtixx - Quick Step03:26:29  +  00:00:06=47,655 
36 ESPAlejandro ValverdeESPMovistar Team03:26:29  +  00:00:06=47,655 
37 UKRAndriy GrivkoKAZAstana Pro Team03:26:29  +  00:00:06=47,655 
38 DEUPaul VossDEUBora-Argon 1803:26:29  +  00:00:06=47,655 
39 DNKMichael ValgrenRUSTinkoff03:26:29  +  00:00:06=47,655 
40 FRAAngelo TulikFRADirect Energie03:26:37  +  00:00:14=47,624 
41 BRAMaximilano RichezeBELEtixx - Quick Step03:26:39  +  00:00:16=47,617 
42 ITAFabio SabatiniBELEtixx - Quick Step03:26:39  +  00:00:16=47,617 
43 NLDWilco KeldermanNLDTeam Lotto NL - Jumbo03:26:43  +  00:00:20=47,601 
44 BELJan BakelantsFRAAg2r La Mondiale03:26:43  +  00:00:20=47,601 
45 POLBartosz HuzarskiDEUBora-Argon 1803:26:43  +  00:00:20=47,601 
46 ESPGorka Izaguirre InsaustiESPMovistar Team03:26:43  +  00:00:20=47,601 
47 HRVRobert KiserlovskiRUSTinkoff03:26:43  +  00:00:20=47,601 
48 FRASylvain ChavanelFRADirect Energie03:26:43  +  00:00:20=47,601 
49 CANAntoine DuchesneFRADirect Energie03:26:43  +  00:00:20=47,601 
50 NLDRamon SinkeldamDEUTeam Giant Alpecin03:26:47  +  00:00:24=47,586 
51 CHEGregory RastUSATrek – Segafredo03:26:50  +  00:00:27=47,575 
52 FRAGeoffrey SoupeFRACofidis – Solutions Crédits03:26:53  +  00:00:30=47,563 
53 BELJürgen RoelandtsBELLotto Soudal03:26:53  +  00:00:30=47,563 
54 NLDTom DumoulinDEUTeam Giant Alpecin03:26:53  +  00:00:30=47,563 
55 BELSep VanmarckeNLDTeam Lotto NL - Jumbo03:26:53  +  00:00:30=47,563 
56 BELMaarten WynantsNLDTeam Lotto NL - Jumbo03:26:53  +  00:00:30=47,563 
57 AUTGeorg PreidlerDEUTeam Giant Alpecin03:26:53  +  00:00:30=47,563 
58 BELJulien VermoteBELEtixx - Quick Step03:26:53  +  00:00:30=47,563 
59 NZLGregory HendersonBELLotto Soudal03:26:53  +  00:00:30=47,563 
60 KAZAlexey LutsenkoKAZAstana Pro Team03:27:06  +  00:00:43=47,513 
61 FRAYohann GèneFRADirect Energie03:27:06  +  00:00:43=47,513 
62 BELIljo KeisseBELEtixx - Quick Step03:27:06  +  00:00:43=47,513 
63 AUSLuke DurbridgeAUSORICA BikeExchange03:27:13  +  00:00:50=47,487 
64 CZEPetr VakocBELEtixx - Quick Step03:27:23  +  00:01:00=47,448 
65 ZAFLouis MeintjesITALampre-Merida03:27:32  +  00:01:09=47,414 
66 ESPMarkel IrizarUSATrek – Segafredo03:27:32  +  00:01:09=47,414 
67 DEUMarcel SiebergBELLotto Soudal03:27:32  +  00:01:09=47,414 
68 ESPJoaquim RodriguezRUSTeam Katusha03:27:32  +  00:01:09=47,414 
69 CHESébastien ReichenbachFRAFDJ03:27:32  +  00:01:09=47,414 
70 FRAPierre RollandUSATeam Cannondale Drapac03:27:32  +  00:01:09=47,414 
71 NLDRoy CurversDEUTeam Giant Alpecin03:27:32  +  00:01:09=47,414 
72 ESPImanol ErvitiESPMovistar Team03:27:32  +  00:01:09=47,414 
73 FRAAlexis VuillermozFRAAg2r La Mondiale03:27:32  +  00:01:09=47,414 
74 DEUEmanuel BuchmannDEUBora-Argon 1803:27:32  +  00:01:09=47,414 
75 ITADiego RosaKAZAstana Pro Team03:27:32  +  00:01:09=47,414 
76 DEUPaul MartensNLDTeam Lotto NL - Jumbo03:27:32  +  00:01:09=47,414 
77 ESPJesus HerradaESPMovistar Team03:27:32  +  00:01:09=47,414 
78 ESPLuis Angel MateFRACofidis – Solutions Crédits03:27:32  +  00:01:09=47,414 
79 ESPHaimar ZubeldiaUSATrek – Segafredo03:27:32  +  00:01:09=47,414 
80 FRAArmindo FonsecaFRAFortuneo - Vital Concept03:27:32  +  00:01:09=47,414 
81 ARGEduardo SepulvedaFRAFortuneo - Vital Concept03:27:32  +  00:01:09=47,414 
82 AUTPatrick KonradDEUBora-Argon 1803:27:32  +  00:01:09=47,414 
83 ITADamiano CarusoUSABMC Racing Team03:27:32  +  00:01:09=47,414 
84 ITAPaolo TiralongoKAZAstana Pro Team03:27:32  +  00:01:09=47,414 
85 FRAMickaël CherelFRAAg2r La Mondiale03:27:32  +  00:01:09=47,414 
86 AUSAdam HansenBELLotto Soudal03:27:32  +  00:01:09=47,414 
87 NLDTimo RoosenNLDTeam Lotto NL - Jumbo03:27:32  +  00:01:09=47,414 
88 CHEMartin ElmigerCHEIAM Cycling03:27:32  +  00:01:09=47,414 
89 FRACyril GautierFRAAg2r La Mondiale03:27:32  +  00:01:09=47,414 
90 ERIDaniel TeklehaimanotZAFDimension Data03:27:32  +  00:01:09=47,414 
91 DNKLars BakBELLotto Soudal03:27:32  +  00:01:09=47,414 
92 DEUMarcus BurghardtUSABMC Racing Team03:27:32  +  00:01:09=47,414 
93 FRAAnthony RouxFRAFDJ03:27:32  +  00:01:09=47,414 
94 DEURobert WagnerNLDTeam Lotto NL - Jumbo03:27:39  +  00:01:16=47,387 
95 SVNLuka PibernikITALampre-Merida03:27:41  +  00:01:18=47,380 
96 DEUTony MartinBELEtixx - Quick Step03:27:46  +  00:01:23=47,361 
97 ITAJacopo GuarnieriRUSTeam Katusha03:28:10  +  00:01:47=47,270 
98 AUTMarco HallerRUSTeam Katusha03:28:30  +  00:02:07=47,194 
99 LTURamunas NavardauskasUSATeam Cannondale Drapac03:28:30  +  00:02:07=47,194 
100 NLDBert-Jan LindemanNLDTeam Lotto NL - Jumbo03:28:38  +  00:02:15=47,164 
101 BELJens DebusschereBELLotto Soudal03:28:47  +  00:02:24=47,130 
102 FRAJulian AlaphilippeBELEtixx - Quick Step03:28:53  +  00:02:30=47,108 
103 NLDStef ClementCHEIAM Cycling03:29:21  +  00:02:58=47,003 
104 CHESteve MorabitoFRAFDJ03:29:21  +  00:02:58=47,003 
105 FRAJérémy RoyFRAFDJ03:29:24  +  00:03:01=46,991 
106 ITAMatteo BonoITALampre-Merida03:29:24  +  00:03:01=46,991 
107 FRABrice FeilluFRAFortuneo - Vital Concept03:29:24  +  00:03:01=46,991 
108 ESTTanel KangertKAZAstana Pro Team03:29:24  +  00:03:01=46,991 
109 CHEFabian CancellaraUSATrek – Segafredo03:30:00  +  00:03:37=46,857 
110 LUXFränk SchleckUSATrek – Segafredo03:30:05  +  00:03:42=46,839 
111 SVNJan PolancITALampre-Merida03:30:05  +  00:03:42=46,839 
112 ITAMatteo TosattoRUSTinkoff03:30:05  +  00:03:42=46,839 
113 CHEMathias FrankCHEIAM Cycling03:30:13  +  00:03:50=46,809 
114 FRAAdrien PetitFRADirect Energie03:30:13  +  00:03:50=46,809 
115 FRACyril LemoineFRACofidis – Solutions Crédits03:30:13  +  00:03:50=46,809 
116 FRAPierre-Luc PérichonFRAFortuneo - Vital Concept03:30:13  +  00:03:50=46,809 
117 HRVKristijan DurasekITALampre-Merida03:30:13  +  00:03:50=46,809 
118 BLRVasil KiryienkaGBRSky Procycling03:30:13  +  00:03:50=46,809 
119 RUSIlnur ZakarinRUSTeam Katusha03:30:13  +  00:03:50=46,809 
120 NLDTom-Jelte SlagterUSATeam Cannondale Drapac03:30:13  +  00:03:50=46,809 
121 USAPeter StetinaUSATrek – Segafredo03:30:13  +  00:03:50=46,809 
122 PRTNelson OliveiraESPMovistar Team03:30:13  +  00:03:50=46,809 
123 USABrent BookwalterUSABMC Racing Team03:30:13  +  00:03:50=46,809 
124 FRAAmaël MoinardUSABMC Racing Team03:30:13  +  00:03:50=46,809 
125 FRAFlorian VachonFRAFortuneo - Vital Concept03:30:13  +  00:03:50=46,809 
126 FRAThibaut PinotFRAFDJ03:30:13  +  00:03:50=46,809 
127 ITADomenico PozzovivoFRAAg2r La Mondiale03:30:13  +  00:03:50=46,809 
128 FRAAnthony DelaplaceFRAFortuneo - Vital Concept03:30:13  +  00:03:50=46,809 
129 ESPMikel Landa MeanaGBRSky Procycling03:30:13  +  00:03:50=46,809 
130 ESPLuis León SánchezKAZAstana Pro Team03:30:13  +  00:03:50=46,809 
131 DEUSimon GeschkeDEUTeam Giant Alpecin03:30:13  +  00:03:50=46,809 
132 DNKJakob FuglsangKAZAstana Pro Team03:30:13  +  00:03:50=46,809 
133 DNKMatti BreschelUSATeam Cannondale Drapac03:30:13  +  00:03:50=46,809 
134 ERINatnael Teweldemedhin BerhaneZAFDimension Data03:30:13  +  00:03:50=46,809 
135 CHEMichael AlbasiniAUSORICA BikeExchange03:30:13  +  00:03:50=46,809 
136 CZEJan BártaDEUBora-Argon 1803:30:13  +  00:03:50=46,809 
137 BELJurgen Van Den BroeckRUSTeam Katusha03:30:13  +  00:03:50=46,809 
138 ESPMikel NieveGBRSky Procycling03:30:13  +  00:03:50=46,809 
139 AUTBernhard EiselZAFDimension Data03:30:13  +  00:03:50=46,809 
140 IMNMark CavendishZAFDimension Data03:30:13  +  00:03:50=46,809 
141 ESPJon Izaguirre InsaustiESPMovistar Team03:30:13  +  00:03:50=46,809 
142 SVNKristjan KorenUSATeam Cannondale Drapac03:30:13  +  00:03:50=46,809 
143 ITACesare BenedettiDEUBora-Argon 1803:30:13  +  00:03:50=46,809 
144 NLDDylan Van BaarleUSATeam Cannondale Drapac03:30:13  +  00:03:50=46,809 
145 FRARomain SicardFRADirect Energie03:30:13  +  00:03:50=46,809 
146 BELSerge PauwelsZAFDimension Data03:30:13  +  00:03:50=46,809 
147 AUSMathew HaymanAUSORICA BikeExchange03:30:13  +  00:03:50=46,809 
148 IRLChristopher Juul JensenAUSORICA BikeExchange03:30:13  +  00:03:50=46,809 
149 AUSLeigh HowardCHEIAM Cycling03:32:02  +  00:05:39=46,408 
150 CHEReto HollensteinCHEIAM Cycling03:32:02  +  00:05:39=46,408 
151 ETHTsgabu Gebremaryan GrmayITALampre-Merida03:32:02  +  00:05:39=46,408 
152 ESPDaniel MorenoESPMovistar Team03:32:02  +  00:05:39=46,408 
153 COLWinner AnaconaESPMovistar Team03:32:02  +  00:05:39=46,408 
154 BELThomas De GendtBELLotto Soudal03:32:02  +  00:05:39=46,408 
155 FRAThomas VoecklerFRADirect Energie03:32:02  +  00:05:39=46,408 
156 ESPDaniel NavarroFRACofidis – Solutions Crédits03:32:02  +  00:05:39=46,408 
157 ESPAlberto LosadaRUSTeam Katusha03:32:02  +  00:05:39=46,408 
158 ITADavide CimolaiITALampre-Merida03:32:02  +  00:05:39=46,408 
159 ESPAngel ViciosoRUSTeam Katusha03:32:02  +  00:05:39=46,408 
160 ESPRubén PlazaAUSORICA BikeExchange03:32:02  +  00:05:39=46,408 
161 POLRafal MajkaRUSTinkoff03:32:02  +  00:05:39=46,408 
162 FRAArnold JeannessonFRACofidis – Solutions Crédits03:32:02  +  00:05:39=46,408 
163 FRANicolas EdetFRACofidis – Solutions Crédits03:32:02  +  00:05:39=46,408 
164 PRTRui CostaITALampre-Merida03:32:02  +  00:05:39=46,408 
165 WALLuke RoweGBRSky Procycling03:32:02  +  00:05:39=46,408 
166 ZAFDaryl ImpeyAUSORICA BikeExchange03:32:02  +  00:05:39=46,408 
167 LUXBen GastauerFRAAg2r La Mondiale03:32:02  +  00:05:39=46,408 
168 AUSMichael MatthewsAUSORICA BikeExchange03:32:02  +  00:05:39=46,408 
169 DNKChris Anker SørensenFRAFortuneo - Vital Concept03:32:02  +  00:05:39=46,408 
170 AUSRohan DennisUSABMC Racing Team03:32:02  +  00:05:39=46,408 
171 FRAJérôme CoppelCHEIAM Cycling03:32:02  +  00:05:39=46,408 
172 NZLGeorge BennettNLDTeam Lotto NL - Jumbo03:32:02  +  00:05:39=46,408 
173 NLDLaurens ten DamDEUTeam Giant Alpecin03:32:02  +  00:05:39=46,408 
174 NLDWout PoelsGBRSky Procycling03:32:02  +  00:05:39=46,408 
175 USAAlex HowesUSATeam Cannondale Drapac03:32:02  +  00:05:39=46,408 
176 ENGStephen CummingsZAFDimension Data03:32:02  +  00:05:39=46,408 
177 ENGIan StannardGBRSky Procycling03:32:02  +  00:05:39=46,408 
178 FRATony GallopinBELLotto Soudal03:32:02  +  00:05:39=46,408 
179 JPNYukiya ArashiroITALampre-Merida03:32:02  +  00:05:39=46,408 
180 FRAWilliam BonnetFRAFDJ03:32:02  +  00:05:39=46,408 
181 FRAArthur VichotFRAFDJ03:32:02  +  00:05:39=46,408 
182 NORVegard BreenFRAFortuneo - Vital Concept03:32:02  +  00:05:39=46,408 
183 FRAJérôme CousinFRACofidis – Solutions Crédits03:32:02  +  00:05:39=46,408 
184 FRAFabrice JeandesbozFRADirect Energie03:32:02  +  00:05:39=46,408 
185 SVNBorut BozicFRACofidis – Solutions Crédits03:32:02  +  00:05:39=46,408 
186 BELEdward TheunsUSATrek – Segafredo03:32:11  +  00:05:48=46,375 
187 DEUAndreas SchillingerDEUBora-Argon 1803:32:22  +  00:05:59=46,335 
188 BELSam BennettDEUBora-Argon 1803:32:22  +  00:05:59=46,335 
189 FRA Alexis GougeardFRAAg2r La Mondiale03:32:22  +  00:05:59=46,335 
190 FRASamuel DumoulinFRAAg2r La Mondiale03:32:22  +  00:05:59=46,335 
191 NLDAlbert TimmerDEUTeam Giant Alpecin03:32:22  +  00:05:59=46,335 
192 USALawson CraddockUSATeam Cannondale Drapac03:43:24  +  00:17:01=44,047 


Todays birthdays.

1896  Georges Cuvelier
1909  Gaspard Rinaldi
1913  Erich Bautz
1913  Alexandre Pawlisiak
1916  Edmond De Lathouwer
1918  Prosper Depredomme
1929  Eluf Dalgaard
1933  Jean Graczyk
1942  Guy Seyve
1943  Henri Rabaute
1964  Jan Siemons
1966  Andrew Bishop
1975  Andrea Brognara
1984  Mikel Nieve